Location: Casteau
(50.5142°N, 4.0161°E)
Time: 03:12:29
(UTC+00:00)

Spot 2 Rocket - Pass Details

Date: 18 September 2020
Orbit: 758 x 771 km, 98.6° (Epoch: 24 October)

Event Time Altitude Azimuth Distance (km) Brightness Sun altitude
Exits shadow 21:28:19 41° 276° (W) 1,090 4.5 -31.2°
Drops below altitude 10° 21:32:41 10° 333° (NNW) 2,300 6.8 -31.6°
Sets 21:35:07 0° 341° (NNW) 3,230 7.7 -31.8°
